Find Starlink 36390

NORAD ID: 67886 Int'l Des: 2026-035 Owner: SPXS Country: US Constellation: starlink operational
LEOCIRCULARRETROGRADE

Aktuelle Ansicht

3D-Globus wird geladen...

Über Starlink 36390

Beschreibung wird geladen...

Nächste Überflüge

Passes for default location (London). Set your location on the main map for personalized predictions.

Höhenverlauf

Loading altitude history...

Zweizeiliger Elementsatz

1 67886U 26035H 26146.39640909 .00062563 00000-0 19243-2 0 9993
2 67886 97.2846 79.8555 0002073 89.2596 270.8884 15.33442195 15890
Epoch: 26. Mai 2026 • Age: 10 hours

Aktueller Status

Höhe 477.5 km
Geschwindigkeit 7.63 km/s
Subsatellitenpunkt 81.58°N, 145.25°E
Startdatum 21. Feb. 2026
Alter 0.2 years
Typ internet

Technische Details

Klassifizierung Payload
Masse 575.00 kg
Trockenmasse 530.00 kg
Gesamtmasse 575.00 kg
Länge 0.30 m
Durchmesser 4.10 m
Spannweite 29.00 m
Form Box + pan
Hersteller SPXS
Bus-Typ Starlink V2MO
Phasenstatus In Orbit
Besitzer/Staat SPXS/US

Most Searched